Location: Caltech
(34.1382°N, 118.1253°W)
Time: 23:53:08
(UTC-07:00)

Cosmos 2084 - Visible Passes

Search period start: 27 August 2016 00:00
Search period end: 06 September 2016 00:00
Orbit: 503 x 684 km, 62.8° (Epoch: 28 August)

Date Brightness Start Highest point End Pass type
(mag) Time Alt. Az. Time Alt. Az. Time Alt. Az.
27 Aug 5.6 19:56:28 10° NNE 19:57:55 12° NE 19:59:23 10° ENE visible
27 Aug 3.9 21:33:39 10° NW 21:37:09 58° WNW 21:37:09 58° WNW visible
28 Aug 5.0 20:04:12 10° N 20:07:16 20° NE 20:09:46 13° E visible
28 Aug 4.8 21:43:02 10° NW 21:46:23 33° WSW 21:46:23 33° WSW visible
29 Aug 4.2 20:12:43 10° NNW 20:16:32 35° NE 20:19:05 18° ESE visible
29 Aug 5.7 21:52:56 10° WNW 21:55:43 18° WSW 21:55:43 18° WSW visible
30 Aug 3.4 20:21:34 10° NNW 20:25:41 69° ENE 20:28:31 21° SE visible
31 Aug 3.9 20:30:42 10° NW 20:34:47 60° WSW 20:38:05 16° SSE visible
01 Sep 5.1 20:40:09 10° NW 20:43:49 30° WSW 20:47:39 10° S visible
02 Sep 6.1 20:50:13 10° WNW 20:52:47 16° WSW 20:55:25 10° SSW visible
05 Sep 5.7 19:37:16 10° WNW 19:40:47 26° WSW 19:44:26 10° S visible
